This is the latest recevied weather packets stored in our database for station/object KA0EGE. If no packets are shown the sender has not sent any weather packets the latest 10 day(s).
| Time | Temp. | Humidity | Pressure | Rain* | Wind** | Luminosity | Snow |
|---|---|---|---|---|---|---|---|
| 1777902980 | 21.11° C | 52% | 1021.4 hPa | 0 mm | - | 277 W/m² | - |
| 1777902676 | 21.11° C | 52% | 1021.3 hPa | 0 mm | - | 459 W/m² | - |
| 1777902374 | 21.11° C | 59% | 1021.2 hPa | 0 mm | - | 374 W/m² | - |
| 1777902070 | 20.56° C | 54% | 1021.1 hPa | 0 mm | - | 421 W/m² | - |
| 1777901769 | 19.44° C | 65% | 1021.3 hPa | 0 mm | - | 358 W/m² | - |
| 1777901466 | 18.89° C | 71% | 1021 hPa | 0 mm | - | 349 W/m² | - |
| 1777901164 | 18.89° C | 67% | 1021.2 hPa | 0 mm | - | 286 W/m² | - |
| 1777900861 | 19.44° C | 64% | 1021.1 hPa | 0 mm | - | 237 W/m² | - |
| 1777900558 | 18.89° C | 64% | 1021.1 hPa | 0 mm | - | 205 W/m² | - |
| 1777900255 | 18.33° C | 66% | 1021 hPa | 0 mm | - | 215 W/m² | - |
| 1777899951 | 17.78° C | 66% | 1021.2 hPa | 0 mm | - | 294 W/m² | - |
| 1777899648 | 17.22° C | 69% | 1021 hPa | 0 mm | - | 245 W/m² | - |
| 1777899346 | 16.67° C | 70% | 1021 hPa | 0 mm | - | 201 W/m² | - |
| 1777899043 | 16.67° C | 71% | 1020.9 hPa | 0 mm | - | 171 W/m² | - |
| 1777898740 | 16.11° C | 74% | 1021 hPa | 0 mm | - | 152 W/m² | - |
| 1777898438 | 15.56° C | 74% | 1021.1 hPa | 0 mm | - | 136 W/m² | - |
| 1777898136 | 15° C | 77% | 1021 hPa | 0 mm | - | 122 W/m² | - |
| 1777897832 | 13.89° C | 80% | 1021 hPa | 0 mm | - | 107 W/m² | - |
| 1777897528 | 13.33° C | 84% | 1020.9 hPa | 0 mm | - | 92 W/m² | - |
| 1777897224 | 12.78° C | 89% | 1021 hPa | 0 mm | - | 79 W/m² | - |
| 1777896920 | 11.67° C | 90% | 1020.8 hPa | 0 mm | - | 67 W/m² | - |
| 1777896618 | 11.11° C | 94% | 1021 hPa | 0 mm | - | 60 W/m² | - |
| 1777896314 | 10° C | 96% | 1020.9 hPa | 0 mm | - | 56 W/m² | - |
| 1777896013 | 9.44° C | 97% | 1020.8 hPa | 0 mm | - | 51 W/m² | - |
| 1777895710 | 8.89° C | 98% | 1020.8 hPa | 0 mm | - | 45 W/m² | - |
* Rain latest hour (hover to see other rain measurements)
** Current wind speed in m/s (hover to see current wind gust speed)